Theta_e
292 293 293 292 293 292 293 293 293 293 292 291 291 290 290 289 289 288 288 287 286 286 286 286 286 287 287 285 284 285 285 284 280 283 286 287 287 287 287 290 290 290 291
291 291 291 291 292 292 292 292 292 291 291 291 290 290 289 289 288 288 287 286 285 285 285 285 285 286 285 284 283 283 284 285 283 280 284 286 286 287 287 288 288 290 290
289 289 289 290 290 291 291 290 291 290 290 290 289 289 288 288 288 288 287 286 285 285 285 285 285 284 282 282 282 282 283 284 284 282 282 286 286 287 287 287 287 288 288
288 288 289 289 290 290 290 290 290 290 289 289 289 289 288 288 288 287 286 285 285 285 285 285 284 283 282 281 281 281 281 281 283 283 283 284 285 287 285 283 282 284 285
287 287 287 288 288 288 288 289 289 289 289 289 288 288 287 287 287 286 285 285 284 284 285 285 284 282 281 282 281 281 282 281 282 282 282 284 284 283 281 281 280 281 284
285 287 287 287 287 288 288 288 288 288 287 287 287 287 286 286 288 288 286 284 284 284 283 283 282 280 280 281 283 283 284 282 282 282 283 282 281 281 281 279 279 278 278
283 284 286 286 286 286 287 287 287 287 287 286 286 286 285 286 289 290 287 284 283 283 283 282 280 281 279 279 280 282 284 285 286 284 281 280 279 280 279 278 277 277 278
281 281 283 284 284 285 284 285 286 286 286 286 285 285 286 285 289 290 288 283 282 282 280 279 278 277 277 276 277 280 282 283 283 282 281 280 281 280 279 277 275 276 279
278 279 280 281 282 283 284 285 286 285 285 286 286 285 285 284 289 289 288 283 282 281 279 277 277 276 277 280 281 281 281 281 282 281 280 280 279 279 278 273 273 273 276
275 277 280 281 282 282 284 285 286 286 286 286 285 285 284 284 288 289 288 284 281 281 278 277 277 275 279 281 283 281 280 279 279 275 274 274 273 273 275 272 271 271 271
274 275 279 281 281 282 284 284 284 285 285 284 284 284 284 284 284 288 289 283 283 281 280 279 276 281 282 283 284 282 280 282 277 274 272 273 272 272 272 272 271 270 270
272 273 275 280 281 282 283 283 282 284 283 283 283 282 282 282 283 288 289 286 285 282 280 280 277 280 282 283 282 280 281 279 274 273 272 272 271 271 271 272 271 271 272
269 271 273 277 281 281 282 282 282 283 284 283 282 282 280 279 281 285 288 289 286 281 281 280 279 281 282 280 278 280 270 272 272 272 271 270 270 270 269 271 272 270 272
266 269 272 274 276 280 281 282 282 282 282 283 282 283 283 281 279 281 283 286 286 284 281 281 281 279 277 275 272 273 271 271 272 272 271 270 270 271 271 271 270 270 271
265 267 270 272 274 277 281 281 282 283 284 284 284 284 284 282 282 282 282 283 285 285 278 276 274 273 272 271 271 270 270 270 272 271 271 270 270 271 271 271 270 271 270
263 266 267 269 272 276 278 280 284 285 286 287 288 286 284 286 287 285 285 285 286 284 276 275 274 274 273 272 272 271 270 269 271 270 270 270 270 270 271 271 271 271 271
261 263 265 267 272 272 274 276 278 282 285 287 288 288 287 286 287 287 286 286 286 283 277 278 277 275 274 273 272 271 271 271 269 270 270 270 270 270 271 271 271 271 270
259 261 263 266 268 268 271 273 275 278 279 281 286 287 287 287 287 287 287 286 283 282 278 278 277 276 275 273 271 271 270 269 269 270 269 269 270 270 270 270 271 269 270
257 259 261 264 264 266 268 271 274 278 280 280 280 284 285 287 287 287 287 283 281 280 279 277 277 276 275 273 272 271 270 270 269 268 268 268 269 270 269 270 270 267 268
256 258 260 261 261 264 265 268 273 276 279 280 280 282 284 284 284 284 285 284 282 282 282 280 278 276 274 272 271 270 269 268 268 268 268 268 268 270 269 269 268 267 267
256 257 258 258 259 261 264 266 269 273 275 278 281 282 284 284 283 283 284 284 283 282 283 281 278 275 273 271 270 269 269 269 268 268 268 268 267 268 269 269 267 267 267
255 256 256 256 258 260 262 265 267 269 270 272 277 282 285 284 284 284 285 285 285 283 283 281 277 275 273 272 271 270 269 269 268 268 268 267 267 267 267 267 266 266 266
254 254 255 257 258 259 260 262 264 267 269 272 275 279 282 283 284 284 285 285 285 285 283 279 278 274 273 272 272 272 271 270 269 269 268 267 267 267 267 266 265 265 265
253 253 254 255 256 257 259 261 263 267 269 270 274 277 279 281 282 284 284 285 285 285 282 279 277 275 272 272 272 273 273 272 270 269 269 268 267 266 266 265 265 264 264
252 252 253 254 254 256 258 260 261 262 264 266 269 271 277 280 281 282 284 285 285 282 279 278 277 275 272 271 271 271 271 271 270 270 270 269 267 266 266 265 264 263 263
252 252 252 254 255 256 258 258 259 261 263 265 267 270 272 275 280 282 282 284 283 281 279 278 276 273 271 271 270 270 270 270 268 269 269 268 266 266 265 264 263 263 262
Wind_Speed
12 12 12 12 12 11 12 13 13 11 12 12 12 11 11 11 10 10 9 8 8 7 7 7 7 7 5 5 5 6 8 7 11 13 10 13 15 15 16 15 15 15 14
10 10 11 10 11 12 13 13 12 12 11 12 12 12 11 11 11 11 10 9 10 9 8 7 8 5 7 6 5 8 9 9 9 16 14 12 13 15 15 18 14 12 14
5 8 8 10 12 13 12 11 11 11 11 11 11 12 12 12 11 10 10 9 10 9 8 8 7 6 7 6 6 8 8 8 9 11 15 11 10 10 12 13 14 14 12
5 6 8 9 10 9 9 10 12 12 13 12 12 12 11 11 11 10 10 9 9 9 8 8 6 7 7 7 6 8 9 9 10 10 12 11 9 9 9 13 14 12 13
4 5 7 7 6 6 7 8 9 11 10 12 12 10 10 11 9 11 11 10 9 9 8 7 6 6 9 9 6 8 8 7 8 11 11 9 9 10 11 10 13 14 12
5 5 4 4 7 10 10 9 10 11 11 11 12 13 12 9 17 20 14 10 10 9 8 7 5 5 8 12 12 15 13 9 11 10 10 7 10 10 9 11 11 12 10
8 7 5 3 5 6 5 9 12 13 12 13 13 12 13 12 21 21 19 9 9 8 7 6 5 4 6 6 8 12 12 16 17 11 8 8 10 9 10 11 12 11 10
12 11 10 7 5 5 6 10 10 9 13 12 13 13 12 11 21 20 19 8 7 7 7 6 6 5 6 5 6 8 7 9 7 5 7 7 8 8 9 9 12 11 10
15 14 12 10 9 5 7 9 8 8 9 12 11 14 14 11 21 21 17 9 7 7 6 6 6 6 8 10 7 7 7 7 5 5 7 6 7 10 10 7 6 8 5
14 13 13 11 9 8 8 8 7 7 10 8 10 13 14 12 21 21 17 8 8 6 5 6 10 8 10 10 7 5 7 6 4 3 3 3 6 6 9 5 6 6 4
13 12 11 9 10 8 7 4 6 8 7 9 9 9 11 12 14 22 22 10 8 6 6 5 6 13 12 11 9 4 6 6 3 2 3 2 3 4 4 5 5 4 5
15 13 13 12 10 8 7 4 3 7 8 9 9 7 7 9 16 22 23 19 15 8 7 5 5 13 12 10 5 6 8 6 1 2 1 2 3 3 4 4 4 4 4
14 13 11 11 10 10 8 3 3 6 7 7 8 8 8 6 7 19 22 22 19 8 5 8 12 12 11 5 5 5 2 1 2 2 1 1 1 3 4 4 3 4 5
13 12 12 11 11 10 8 4 4 5 6 7 8 9 7 8 8 8 9 11 15 11 11 7 9 8 7 4 2 3 2 3 2 2 1 1 1 2 3 3 2 1 6
11 10 10 9 9 9 7 7 5 6 7 7 8 8 9 10 13 17 15 11 10 11 9 4 4 4 5 4 3 3 3 3 2 1 1 1 3 2 3 3 3 6 6
13 10 9 9 9 7 8 8 11 15 14 15 11 9 4 6 13 23 24 23 20 23 5 5 6 6 7 6 5 5 4 4 3 3 1 1 4 4 4 3 3 4 5
11 12 9 10 9 9 8 8 10 9 12 14 14 12 13 9 12 19 22 23 24 22 5 7 7 8 7 7 6 5 5 5 4 4 3 3 4 4 4 3 3 4 5
10 12 9 8 7 9 8 8 7 9 9 4 9 10 13 11 13 15 17 18 12 13 6 8 8 8 7 7 7 6 5 5 4 4 4 4 4 6 5 4 4 5 5
10 8 8 8 7 9 9 9 8 8 9 7 3 8 9 13 14 16 19 10 11 11 9 8 7 7 7 7 6 6 7 7 6 6 4 5 4 5 5 5 5 7 7
9 12 11 7 8 8 8 9 10 7 8 8 5 5 5 8 8 10 11 11 10 10 9 8 7 6 6 7 7 7 6 6 6 6 6 6 6 4 6 6 6 7 7
8 8 8 8 8 7 8 8 9 10 5 9 7 6 13 9 10 11 12 11 11 10 9 9 8 8 8 7 7 8 8 7 7 6 6 6 7 5 5 6 7 7 8
9 9 8 9 8 8 9 8 9 9 9 7 10 8 16 10 9 10 11 11 11 11 9 9 8 8 9 11 10 10 9 9 8 8 8 7 6 6 5 6 7 8 8
10 10 10 9 8 9 9 9 10 9 11 9 8 9 7 9 9 9 10 10 10 10 9 9 9 8 7 8 10 11 12 12 11 10 10 9 8 8 7 7 8 9 8
10 11 11 10 8 9 10 9 9 12 10 9 8 8 9 9 9 10 10 9 9 9 8 9 10 12 11 10 8 9 8 8 9 11 13 10 9 10 8 8 8 9 10
10 10 10 10 9 9 10 10 9 9 10 10 10 8 10 9 9 9 9 9 9 8 10 10 8 12 15 17 14 14 15 18 15 15 10 12 12 13 10 8 9 9 12
10 11 10 9 10 10 9 9 10 11 11 9 9 9 9 10 10 8 8 10 9 9 10 9 10 14 15 14 15 16 18 18 17 18 12 12 12 10 9 11 14 9 12
Wind_Direction
173 180 179 182 179 169 177 182 183 174 173 172 176 173 174 177 176 178 182 180 193 200 210 220 238 244 244 257 254 251 253 247 263 286 289 303 304 308 310 306 305 300 299
175 170 180 170 173 179 189 189 177 176 176 173 172 174 177 180 179 182 183 184 195 204 212 220 236 236 256 256 255 257 258 256 267 279 293 302 308 310 300 309 311 305 307
156 165 166 179 186 195 192 180 178 171 174 173 171 177 181 183 181 186 185 185 198 205 207 215 229 240 254 258 257 264 266 266 269 277 291 298 300 304 312 311 311 310 304
176 177 193 200 198 195 186 182 178 177 176 178 182 183 183 181 183 183 183 189 197 206 206 214 219 228 248 259 260 268 274 276 278 284 290 297 303 315 315 320 317 314 311
240 201 197 180 177 172 182 184 179 183 182 179 176 181 181 183 185 183 185 190 193 201 207 210 220 225 241 246 258 268 270 279 280 292 294 299 315 326 325 322 308 315 311
314 270 241 213 193 191 187 184 180 186 181 177 185 185 185 191 193 191 183 188 194 194 199 203 217 220 243 250 262 272 269 270 276 289 290 310 314 318 317 315 312 320 325
6 353 329 249 226 216 200 187 195 196 180 188 188 185 190 194 192 191 190 189 191 194 191 187 208 226 233 249 268 276 278 281 282 300 299 311 308 320 317 311 314 305 294
9 8 3 340 260 225 188 203 207 191 194 191 189 189 190 198 192 191 188 180 191 196 189 187 202 223 237 238 255 267 264 277 280 296 297 298 301 323 317 315 301 292 281
4 354 344 336 318 248 217 219 214 200 200 204 194 184 191 192 191 188 180 177 193 206 193 194 205 218 238 250 257 275 286 279 266 301 303 314 357 350 356 330 338 333 314
350 338 329 320 313 288 239 222 209 203 216 202 198 197 193 186 190 187 180 173 190 195 192 206 216 216 233 240 253 263 277 284 288 309 313 346 24 8 12 10 335 338 323
336 329 328 325 312 292 268 215 205 208 197 195 200 197 189 184 188 189 188 182 192 184 195 199 212 222 225 238 254 244 264 282 305 284 290 357 25 18 9 2 4 358 354
332 332 336 335 335 315 284 241 194 201 200 199 194 194 198 187 184 193 194 193 188 182 193 191 194 201 214 233 250 250 283 306 259 259 285 3 355 2 346 331 349 2 16
329 328 328 331 337 334 323 260 190 208 213 204 198 198 198 190 191 192 196 199 196 191 172 181 181 191 208 216 239 245 84 202 194 249 249 78 323 320 309 294 325 6 25
324 324 323 333 342 342 328 293 246 215 216 213 202 204 191 187 187 191 196 198 198 190 178 174 178 164 174 178 179 166 178 206 191 230 227 93 346 356 12 342 334 338 48
324 322 331 329 331 329 335 310 269 246 227 222 220 211 195 196 202 192 186 188 188 180 138 131 154 160 187 197 185 170 174 193 190 191 234 97 76 50 32 357 34 66 82
324 331 332 328 317 333 336 326 303 274 256 242 243 210 221 237 190 194 196 196 186 161 138 177 190 192 197 193 187 173 178 188 185 165 174 164 117 107 94 70 61 62 66
318 319 320 322 318 326 333 326 321 316 286 259 244 214 203 200 194 193 197 195 182 164 192 191 195 197 193 188 175 178 179 183 160 165 165 167 143 123 127 119 92 60 64
302 301 301 300 315 315 312 310 302 300 298 283 244 231 214 206 212 198 193 184 179 191 198 194 198 195 187 185 175 175 165 153 170 170 163 175 162 140 144 133 108 97 80
296 292 295 292 300 300 300 295 289 292 279 270 240 242 200 211 209 204 187 187 186 194 198 200 193 188 187 178 172 170 168 168 167 162 179 164 173 154 142 134 112 95 93
275 268 273 288 292 295 291 289 290 280 290 267 245 234 186 191 209 205 199 192 190 198 202 195 192 189 185 175 168 163 164 165 164 170 173 167 167 173 152 142 129 120 104
272 276 273 282 280 276 275 273 286 289 287 295 263 219 218 208 201 221 214 207 197 194 198 184 187 188 174 167 171 162 169 169 172 169 165 168 156 164 163 136 126 122 123
269 275 276 271 271 270 273 278 274 276 274 264 277 252 225 233 220 211 220 214 206 198 190 185 185 189 186 176 174 172 171 173 173 170 161 159 155 147 158 143 140 132 132
264 263 263 262 260 266 269 267 267 267 269 268 269 271 241 228 235 225 224 216 205 198 188 183 187 179 182 183 174 176 172 181 176 168 164 159 157 153 162 156 150 141 138
264 261 262 262 264 262 262 263 260 262 269 272 270 265 255 240 224 237 231 216 203 197 181 179 187 183 178 178 183 176 156 156 157 164 159 159 158 153 151 154 156 149 136
251 253 255 255 255 258 262 259 266 269 269 267 273 268 281 247 234 219 237 225 205 185 178 182 189 183 177 178 180 175 154 160 158 156 154 153 155 159 154 152 149 150 139
256 252 251 252 251 251 251 257 262 263 260 261 264 266 261 285 253 219 223 226 206 192 178 187 189 186 179 182 177 162 156 160 153 154 153 151 149 154 154 151 152 154 147